Snowfall_Accumulation
0.0 0.0 0.0 0.0 0.0 0.0 0.0 0.0 0.0 0.0 0.0 0.0 0.0 0.0 0.0 0.0 0.0 0.0 0.0 0.0 0.0 0.0 0.0 0.0 0.0 0.0 0.0 0.0 0.0 0.0 0.0 0.0 0.0 0.0 0.0 0.0 0.0 0.0
0.0 0.0 0.0 0.0 0.0 0.0 0.0 0.0 0.0 0.1 0.0 0.0 0.0 0.0 0.0 0.0 0.0 0.0 0.0 0.0 0.0 0.0 0.0 0.0 0.0 0.0 0.0 0.0 0.0 0.0 0.0 0.0 0.0 0.0 0.0 0.0 0.0 0.0
0.0 0.0 0.0 0.0 0.0 0.0 0.0 0.0 0.0 0.0 0.0 1.0 0.8 0.4 0.0 0.0 0.0 0.0 0.0 0.0 0.0 0.0 0.0 0.0 0.0 0.0 0.0 0.0 0.0 0.0 0.0 0.0 0.0 0.0 0.0 0.0 0.0 0.0
0.0 0.0 0.0 0.0 0.0 0.0 0.0 0.3 0.0 0.1 0.9 0.8 0.1 0.1 0.0 0.0 0.0 0.0 0.0 0.0 0.1 0.0 0.0 0.0 0.0 0.0 0.0 0.0 0.0 0.0 0.0 0.0 0.0 0.0 0.0 0.0 0.0 0.0
0.0 0.0 0.0 0.0 0.0 0.0 0.8 0.3 0.1 0.9 0.4 0.5 0.2 0.0 0.0 0.0 0.0 0.0 0.0 0.0 0.0 0.0 0.0 0.0 0.0 0.0 0.0 0.0 0.0 0.0 0.0 0.0 0.0 0.0 0.0 0.0 0.0 0.0
0.0 0.0 0.0 0.0 0.1 0.5 0.9 0.5 0.2 0.1 0.0 0.3 0.0 0.7 0.4 0.0 0.4 0.2 0.0 0.0 0.0 0.0 0.0 0.0 0.0 0.0 0.0 0.0 0.0 0.0 0.0 0.0 0.0 0.0 0.0 0.0 0.0 0.0
0.7 1.8 1.3 0.6 0.3 0.1 0.2 0.4 0.0 0.0 0.7 2.4 2.3 1.4 0.8 0.3 0.1 0.0 0.0 0.0 0.0 0.0 0.0 0.0 0.0 0.0 0.0 0.0 0.0 0.0 0.0 0.0 0.0 0.0 0.0 0.0 0.0 0.0
1.3 1.1 0.6 0.8 0.4 0.0 0.0 0.0 0.0 0.8 2.7 4.0 3.4 1.5 0.0 0.0 0.0 0.0 0.9 2.0 2.2 0.0 0.0 0.1 0.0 0.0 0.0 0.0 0.0 0.0 0.0 0.0 0.0 0.0 0.0 0.0 0.0 0.0
2.1 1.9 1.1 0.4 0.3 0.2 0.0 0.0 0.1 0.4 0.4 0.4 0.3 0.1 0.2 0.0 1.8 3.5 2.2 2.7 1.6 0.0 0.1 0.5 0.0 0.0 0.0 0.0 0.0 0.0 0.0 0.0 0.0 0.0 0.0 0.0 0.0 0.0
0.5 0.5 0.0 0.0 0.0 0.1 0.2 1.5 0.9 0.2 0.0 0.0 0.0 0.1 0.5 0.3 0.4 0.8 0.7 0.9 0.4 0.0 0.1 2.3 0.1 0.1 0.0 0.0 0.0 0.0 0.0 0.0 0.0 0.0 0.0 0.0 0.0 0.0
0.1 0.0 0.1 0.1 0.0 0.0 1.0 1.5 0.2 0.0 0.0 0.0 0.1 0.1 0.0 0.0 0.0 1.6 3.1 3.3 2.2 0.1 0.0 0.7 0.3 0.2 0.0 0.0 0.0 0.0 0.0 0.0 0.0 0.0 0.0 0.0 0.0 0.0
0.0 0.0 0.0 0.0 0.0 0.3 0.5 0.1 0.6 0.0 0.9 0.7 0.0 0.0 0.0 0.0 0.0 0.1 3.4 11.8 5.6 4.6 0.0 4.0 1.6 0.9 8.1 1.5 1.4 0.8 0.0 0.0 0.0 0.0 0.0 0.0 0.0 0.1
0.3 0.0 0.0 0.1 0.5 0.1 0.0 0.0 0.1 0.1 0.1 0.1 0.7 0.0 0.0 0.5 0.6 0.6 1.6 10.4 15.8 9.7 0.0 8.3 11.5 3.5 9.5 3.1 2.9 2.6 1.6 0.0 0.0 0.0 0.0 0.0 0.1 0.1
0.2 0.0 0.2 0.7 0.0 0.0 0.0 0.1 0.1 0.2 0.0 0.1 0.2 0.2 0.2 0.3 0.2 0.2 0.7 1.8 3.5 9.3 3.4 5.6 21.8 9.3 14.5 10.1 4.4 4.7 3.5 2.6 1.2 1.6 2.1 1.3 0.6 0.4
0.1 0.4 0.4 0.0 0.0 0.0 0.0 0.0 0.0 0.0 0.5 1.9 1.3 0.5 0.3 0.6 1.1 3.6 3.9 4.2 5.2 5.8 6.9 7.0 11.1 12.0 16.3 15.3 9.6 5.8 8.0 5.8 4.1 7.8 8.1 6.9 3.0 2.3
0.9 0.8 0.0 0.0 0.0 0.0 0.0 0.0 0.0 0.1 1.6 3.7 3.7 1.9 2.2 4.1 4.6 5.5 9.9 9.3 12.8 9.9 8.9 8.3 8.8 11.3 15.0 8.8 10.1 9.2 6.9 13.4 7.7 7.4 8.8 6.8 4.8 2.9
1.7 0.9 0.0 0.0 0.0 0.0 0.0 0.0 0.0 0.0 1.4 1.8 3.7 4.0 4.2 5.8 7.1 9.2 13.0 15.4 16.4 12.1 11.5 9.3 7.6 7.1 7.0 7.5 10.5 7.3 8.8 10.7 10.2 10.1 10.2 11.5 6.9 1.7
3.4 3.6 1.7 1.1 0.5 0.3 0.1 1.1 1.5 1.3 2.3 5.1 5.5 5.6 8.2 9.6 11.6 13.5 15.0 16.6 16.1 11.1 11.5 9.4 8.2 9.7 6.7 5.8 5.7 11.8 9.5 11.8 11.0 10.1 9.6 12.7 10.0 4.2
6.3 7.9 8.2 7.9 5.4 4.8 3.0 4.9 4.7 3.3 5.4 8.4 8.8 9.0 10.7 11.9 12.3 14.6 13.3 13.6 12.3 9.7 9.1 8.2 10.7 15.1 18.2 9.1 4.8 4.9 17.2 13.3 9.7 9.0 7.0 6.4 8.2 6.1
7.7 10.2 11.2 11.8 10.7 10.9 10.0 10.1 9.9 8.3 8.7 8.8 12.0 12.2 12.2 15.7 15.8 14.9 12.8 12.8 11.7 8.1 6.6 4.4 5.6 11.2 24.1 20.8 17.4 10.1 6.8 13.9 11.4 10.8 7.6 5.3 3.9 1.6
8.7 9.4 10.5 10.6 11.8 12.1 12.0 12.3 11.9 14.5 17.0 18.9 16.6 16.8 14.9 20.3 17.7 12.4 11.6 8.3 6.9 7.3 8.7 2.8 2.0 3.4 9.1 12.4 14.6 5.9 8.6 6.3 5.8 12.3 10.6 10.5 7.9 5.5
6.5 7.8 8.3 8.7 11.2 12.4 13.9 13.8 15.4 15.1 16.4 14.4 15.7 16.7 18.9 20.7 20.5 15.0 10.4 12.5 9.6 8.1 7.9 4.2 6.7 9.4 11.3 12.4 9.8 7.4 8.2 7.1 2.9 2.7 2.3 5.0 19.1 26.7
4.9 6.3 7.1 8.5 9.2 10.9 13.3 15.3 17.3 17.8 18.6 21.7 21.1 19.5 18.4 18.8 11.5 11.9 12.4 12.4 13.5 12.5 9.9 11.7 9.2 8.2 8.6 10.2 11.2 10.4 6.1 5.6 5.6 7.6 9.0 3.3 3.0 3.3